Date String (YYYY-MM-DD hh:mm:ss) UTC,Instrument flags,Ambient pressure (hPa),Sample flow (lpm),Bypass flow (lpm),Sample temperature (°C),Ambient temperature (°C),ASC tube jacket temperature (°C),LED temperature (°C),Box temperature (°C),Sample RH (%),Span deviation,Mass concentration (μg/m³),Mass concentration (μg/m³),Mass concentration (μg/m³)
DateTimeUTC,F1_M11,P_M11,Q1_M11,Q2_M11,T1_M11,T2_M11,T3_M11,T4_M11,T5_M11,U1_M11,ZSPAN_M11,X0_M11,X2_M11,X1_M11
2023-02-03 22:00:00,,0828.2,4.97,0.00,27.8,26.5,00.0,36.7,29.6,06.9,0000.0,0011.16,0005.08,0004.33
2023-02-03 22:01:00,,0828.2,5.04,0.00,27.8,26.5,00.0,36.7,29.6,06.7,0000.0,0011.30,0005.11,0004.35
2023-02-03 22:02:00,,0828.1,4.97,0.00,27.8,26.5,00.0,36.7,29.6,06.8,0000.0,0010.57,0005.17,0004.39
2023-02-03 22:03:00,,0828.2,5.03,0.00,27.8,26.5,00.0,36.7,29.6,06.8,0000.0,0010.62,0005.36,0004.56
2023-02-03 22:04:00,,0828.1,4.97,0.00,27.8,26.5,00.0,36.7,29.6,06.7,0000.0,0010.43,0005.48,0004.69
2023-02-03 22:05:00,,0828.1,5.03,0.00,27.8,26.5,00.0,36.7,29.6,06.4,0000.0,0010.16,0005.55,0004.78
2023-02-03 22:06:00,,0828.2,4.97,0.00,27.8,26.5,00.0,36.7,29.6,06.2,0000.0,0009.96,0005.54,0004.81
2023-02-03 22:07:00,,0828.1,5.03,0.00,27.8,26.5,00.0,36.7,29.5,06.2,0000.0,0009.84,0005.53,0004.83
2023-02-03 22:08:00,,0828.2,4.98,0.00,27.8,26.5,00.0,36.7,29.5,05.6,0000.0,0009.51,0005.45,0004.77
2023-02-03 22:09:00,,0828.1,4.98,0.00,27.8,26.5,00.0,36.7,29.5,06.2,0000.0,0009.32,0005.41,0004.74
2023-02-03 22:10:00,,0828.1,5.04,0.00,27.8,26.4,00.0,36.7,29.5,06.7,0000.0,0009.47,0005.50,0004.82
2023-02-03 22:11:00,,0828.1,4.97,0.00,27.8,26.3,00.0,36.7,29.5,06.9,0000.0,0009.64,0005.58,0004.92
2023-02-03 22:12:00,,0828.2,5.04,0.00,27.8,26.3,00.0,36.7,29.5,08.4,0000.0,0010.19,0005.73,0005.10
2023-02-03 22:13:00,,0828.2,4.97,0.00,27.8,26.1,00.0,36.7,29.5,10.4,0000.0,0011.83,0006.31,0005.66
2023-02-03 22:14:00,,0828.2,5.02,0.00,27.7,26.0,00.0,36.7,29.4,11.2,0000.0,0012.75,0007.10,0006.45
2023-02-03 22:15:00,,0828.2,4.98,0.00,27.7,25.9,00.0,36.6,29.4,10.9,0000.0,0013.98,0008.14,0007.43
2023-02-03 22:16:00,,0828.2,4.97,0.00,27.7,25.9,00.0,36.6,29.4,10.5,0000.0,0015.20,0009.02,0008.31
2023-02-03 22:17:00,,0828.2,5.05,0.00,27.7,25.9,00.0,36.6,29.4,10.6,0000.0,0017.01,0010.15,0009.41
2023-02-03 22:18:00,,0828.2,4.97,0.00,27.7,26.0,00.0,36.6,29.4,09.6,0002.1,0018.78,0011.48,0010.70
2023-02-03 22:19:00,,0828.3,5.05,0.00,27.6,26.0,00.0,36.6,29.4,09.1,0005.5,0020.86,0013.00,0012.10
2023-02-03 22:20:00,,0828.2,4.96,0.00,27.7,26.1,00.0,36.6,29.4,09.2,0006.0,0022.50,0014.26,0013.30
2023-02-03 22:21:00,,0828.3,5.04,0.00,27.7,26.1,00.0,36.6,29.4,09.3,0006.3,0023.47,0015.19,0014.18
2023-02-03 22:22:00,,0828.2,4.97,0.00,27.7,26.1,00.0,36.6,29.4,09.4,0005.8,0024.40,0016.07,0015.01
2023-02-03 22:23:00,,0828.2,5.00,0.00,27.7,26.2,00.0,36.6,29.5,09.5,0005.5,0024.88,0016.90,0015.80
2023-02-03 22:24:00,,0828.2,5.01,0.00,27.7,26.2,00.0,36.5,29.5,09.6,0005.4,0025.34,0017.45,0016.32
2023-02-03 22:25:00,,0828.1,4.98,0.00,27.7,26.3,00.0,36.5,29.5,09.4,0005.4,0025.60,0017.56,0016.48
2023-02-03 22:26:00,,0828.3,5.05,0.00,27.7,26.3,00.0,36.5,29.5,09.1,0005.5,0026.37,0017.34,0016.30
2023-02-03 22:27:00,,0828.2,4.98,0.00,27.7,26.4,00.0,36.5,29.5,09.2,0005.5,0025.85,0017.12,0016.08
2023-02-03 22:28:00,,0828.1,4.98,0.00,27.7,26.4,00.0,36.5,29.5,08.6,0005.7,0024.73,0016.70,0015.67
2023-02-03 22:29:00,,0828.2,5.03,0.00,27.7,26.5,00.0,36.5,29.5,08.0,0006.0,0024.07,0015.99,0014.96
2023-02-03 22:30:00,,0828.3,4.98,0.00,27.7,26.4,00.0,36.5,29.5,08.5,0006.2,0022.98,0015.19,0014.22
2023-02-03 22:31:00,,0828.2,4.98,0.00,27.7,26.4,00.0,36.6,29.6,09.0,0004.8,0022.95,0014.85,0013.88
2023-02-03 22:32:00,,0828.2,5.04,0.00,27.7,26.5,00.0,36.6,29.6,09.2,0005.5,0023.22,0015.09,0014.10
2023-02-03 22:33:00,,0828.2,4.98,0.00,27.8,26.5,00.0,36.6,29.6,08.5,0005.6,0023.70,0015.43,0014.35
2023-02-03 22:34:00,,0828.2,4.98,0.00,27.8,26.5,00.0,36.6,29.6,08.6,0005.6,0025.43,0015.55,0014.45
2023-02-03 22:35:00,,0828.2,5.05,0.00,27.8,26.5,00.0,36.6,29.6,08.4,0006.1,0025.65,0015.50,0014.45
2023-02-03 22:36:00,,0828.1,4.98,0.00,27.8,26.5,00.0,36.6,29.6,08.3,0005.9,0025.20,0015.56,0014.48
2023-02-03 22:37:00,,0828.2,4.98,0.00,27.8,26.5,00.0,36.6,29.6,08.7,0006.1,0025.20,0015.93,0014.78
2023-02-03 22:38:00,,0828.2,5.03,0.00,27.8,26.5,00.0,36.6,29.7,08.6,0006.2,0026.32,0016.62,0015.36
2023-02-03 22:39:00,,0828.2,4.97,0.00,27.8,26.5,00.0,36.6,29.7,08.6,0006.1,0027.25,0017.34,0016.01
2023-02-03 22:40:00,,0828.2,4.98,0.00,27.8,26.6,00.0,36.6,29.7,08.9,0006.2,0027.78,0018.14,0016.74
2023-02-03 22:41:00,,0828.2,5.04,0.00,27.8,26.6,00.0,36.6,29.7,08.7,0006.1,0028.21,0018.64,0017.26
2023-02-03 22:42:00,,0828.4,4.96,0.00,27.8,26.6,00.0,36.6,29.7,08.8,0005.9,0028.83,0018.94,0017.56
2023-02-03 22:43:00,,0828.3,5.05,0.00,27.8,26.6,00.0,36.6,29.7,09.1,0006.1,0029.35,0019.09,0017.70
2023-02-03 22:44:00,,0828.2,4.97,0.00,27.9,26.7,00.0,36.6,29.7,08.9,0006.4,0029.88,0019.32,0017.96
2023-02-03 22:45:00,,0828.2,4.99,0.00,27.9,26.7,00.0,36.6,29.7,08.0,0006.6,0027.89,0019.09,0017.77
2023-02-03 22:46:00,,0828.2,5.03,0.00,27.9,26.7,00.0,36.7,29.7,07.1,0006.3,0026.22,0018.45,0017.14
2023-02-03 22:47:00,,0828.2,4.97,0.00,27.9,26.6,00.0,36.7,29.6,06.4,0006.4,0025.74,0017.49,0016.25
2023-02-03 22:48:00,,0828.3,5.04,0.00,27.9,26.6,00.0,36.7,29.6,07.7,0006.2,0023.99,0016.37,0015.24
2023-02-03 22:49:00,,0828.3,4.97,0.00,27.9,26.6,00.0,36.7,29.6,08.3,0005.9,0022.94,0015.35,0014.32
2023-02-03 22:50:00,,0828.3,5.00,0.00,27.9,26.5,00.0,36.7,29.6,08.5,0002.4,0022.58,0014.79,0013.77
2023-02-03 22:51:00,,0828.3,5.00,0.00,27.8,26.3,00.0,36.7,29.6,08.7,0003.0,0022.20,0014.49,0013.49
2023-02-03 22:52:00,,0828.3,5.00,0.00,27.8,26.3,00.0,36.7,29.6,09.0,0003.0,0022.69,0014.61,0013.56
2023-02-03 22:53:00,,0828.3,5.00,0.00,27.8,26.3,00.0,36.7,29.6,09.0,0005.7,0022.56,0014.81,0013.75
2023-02-03 22:54:00,,0828.3,4.98,0.00,27.8,26.2,00.0,36.7,29.6,09.1,0005.5,0022.30,0014.79,0013.71
2023-02-03 22:55:00,,0828.4,5.04,0.00,27.8,26.2,00.0,36.7,29.6,08.3,0005.4,0021.49,0014.30,0013.21
2023-02-03 22:56:00,,0828.4,4.97,0.00,27.8,26.3,00.0,36.7,29.6,08.3,0005.3,0021.99,0014.31,0013.18
2023-02-03 22:57:00,,0828.5,5.04,0.00,27.8,26.3,00.0,36.7,29.6,08.9,0005.5,0023.37,0015.18,0013.94
2023-02-03 22:58:00,,0828.4,4.97,0.00,27.8,26.3,00.0,36.7,29.6,08.4,0005.5,0024.58,0016.40,0015.04
2023-02-03 22:59:00,,0828.3,4.98,0.00,27.8,26.3,00.0,36.7,29.6,06.4,0005.8,0025.16,0016.92,0015.53
